Regional Weather Roundup
Issued by NWS Mt. Holly, NJ

Home | Current Version | Previous Version | Text Only | Print | Product List | Glossary On
Versions: 1 2 3 4 5 6 7 8 9 10 11 12 13 14 15 16 17 18 19 20 21 22 23 24 25 26 27 28 29 30 31 32 33 34 35 36 37 38 39 40 41 42 43 44 45 46 47 48 49 50
000
ASUS41 KPHI 090912
RWRPHI

REGIONAL WEATHER ROUNDUP
NATIONAL WEATHER SERVICE MOUNT HOLLY NJ
400 AM EST FRI DEC 09 2016

NOTE:  "FAIR" INDICATES FEW OR NO CLOUDS BELOW 12,000 FEET WITH NO
SIGNIFICANT WEATHER AND/OR OBSTRUCTIONS TO VISIBILITY.

 * = STATION DOES NOT REPORT PRECIPITATION (E.G. RAIN, SNOW, ETC.)
        OR FOG.

NJZ015>026-091000-
SOUTHERN NEW JERSEY

CITY           SKY/WX    TMP DP  RH WIND       PRES   REMARKS
POMONA         PTCLDY    30  15  53 W12       30.13R WCI  20
WILDWOOD*      CLEAR     32  18  56 W12G24    30.17S WCI  23
MILLVILLE      CLEAR     30  17  58 W16       30.16R WCI  19
WRIGHTSTOWN    CLEAR     30  16  56 W13       30.08R WCI  20
MOUNT HOLLY    PTCLDY    30  14  51 W12       30.13R WCI  20
TRENTON        PTCLDY    30  15  53 W9        30.09S WCI  22

$$
NJZ001>014-091000-
NORTHERN NEW JERSEY

CITY           SKY/WX    TMP DP  RH WIND       PRES   REMARKS
SUSSEX         CLOUDY    31  17  56 W5        30.01S WCI  26
ANDOVER*         N/A     29  17  61 VRB6      30.03R WCI  23
MORRISTOWN     CLEAR     30  18  59 W10       30.05R WCI  21
NEWARK         CLEAR     31  17  56 W16       30.05R WCI  20
TETERBORO      CLEAR     32  16  51 W7        30.04R WCI  26
CALDWELL       CLEAR     32  16  51 W7        30.05R WCI  26
SOMERVILLE     CLEAR     31  16  54 VRB6      30.06R WCI  25
ALLAIRE*       CLEAR     29  17  61 W16       30.07S WCI  17
TOMS RIVER*    PTCLDY    30  18  60 W13       30.10S WCI  20

$$
PAZ043-044-047-054-055-060>062-066>071-091000-
EASTERN PENNSYLVANIA

CITY           SKY/WX    TMP DP  RH WIND       PRES   REMARKS
PHILADELPHIA   PTCLDY    31  14  49 W16G22    30.16R WCI  20
NORTH PHILA    PTCLDY    31  16  54 W14G22    30.13S WCI  21
BLUE BELL*     PTCLDY    30  18  59 W9G17     30.11S WCI  22
DOYLESTOWN     CLEAR     30  17  58 W9G21     30.08S WCI  22
QUAKERTOWN*    CLEAR     28  16  59 W9G18     30.09F WCI  20
PERKASIE*      FAIR      28  16  59 W17G25    30.08F WCI  16
POTTSTOWN      PTCLDY    28  15  58 W15G26    30.12S WCI  16
LANCASTER      MOCLDY    29  17  61 W14       30.16R WCI  18
COATESVILLE    CLEAR     27  16  63 W17G25    30.14R WCI  14
READING        CLOUDY    30  15  53 W10       30.14R WCI  21
ALLENTOWN      CLEAR     30  16  56 W13       30.09S WCI  20
MOUNT POCONO   MOCLDY    23  14  68 W20G28    29.94S WCI   8
HAZLETON       CLOUDY    27  18  69 W6        30.05S WCI  20
LEHIGHTON        N/A     30  18  59 SW9       30.09S WCI  22
WILKES BARRE   CLOUDY    29  17  61 SW8       30.03S WCI  21

$$
DEZALL-MDZ008-012-015-019-020-091000-
DELAWARE AND EASTERN MARYLAND

CITY           SKY/WX    TMP DP  RH WIND       PRES   REMARKS
WILMINGTON     PTCLDY    29  16  58 W16       30.17R WCI  17
DOVER          CLEAR     31  17  57 W13       30.17S WCI  21
GEORGETOWN     CLEAR     31  17  56 W9        30.19S WCI  23
EASTON         CLEAR     32  15  49 NW10      30.25R WCI  24
ABERDEEN       CLEAR     29  13  52 W8        30.20S WCI  21
PATUXENT       CLEAR     32  16  51 NW18G25   30.22S WCI  20
OCEAN CITY     CLEAR     30  18  60 NW5       30.19S WCI  25
WALLOPS ISLAND CLEAR     31  19  61 NW12      30.20S WCI  22
SALISBURY      CLEAR     30  18  60 W5        30.19S WCI  25

$$
PAZ001-021-NYZ056-072-MDZ011-DCZ001-091000-
OTHER NEARBY LOCATIONS

CITY           SKY/WX    TMP DP  RH WIND       PRES   REMARKS
HARRISBURG     CLOUDY    31  18  58 W13       30.18R WCI  21
STATE COLLEGE  CLOUDY    25  17  69 W16G29    30.13S WCI  12
WILLIAMSPORT   CLOUDY    30  18  60 W14       30.11R WCI  19
BINGHAMTON     LGT SNOW  24  21  88 W9        29.96R FOG     WCI  14
NEW YORK CITY    N/A     34  16  47 MISG        N/A
BALTIMORE      CLEAR     29  13  51 W12G22    30.22R WCI  19
WASHINGTON DC  PTCLDY    31  15  52 NW13G23   30.25R WCI  21

$$



USA.gov is the U.S. government's official web portal to all federal, state and local government web resources and services.